sat.trackr.live / text

‹ back to catalog

COSMOS 2497 (RODNIK-S *)

NORAD 39762 · 2014-028B

PAYLOAD ACTIVE UNKNOWN

§ Identity

Operator
Country
CIS
Launch date
2014-05-23
Launch site
PLMSC
Launch vehicle
Mass (kg)
RCS (m²)
1.72

External: N2YO · Heavens-Above · Gunter

§ Orbital elements

Epoch: 2026-05-25T05:13:27.304032Z

Period
115.86 min
Inclination
82.4477°
Eccentricity
0.0021523
Mean motion
12.42893120 rev/d
Perigee alt
1,477.4 km
Apogee alt
1,511.3 km
Semi-major
7,872.5 km
B*
1.0465e-4
RAAN
124.7992°
Arg perigee
121.7994°
Mean anomaly
238.5185°
Rev number
54,466

§ Raw data

COSMOS 2497 (RODNIK-S *)1 39762U 14028B   26145.21767713  .00000024  00000+0  10465-3 0  99982 39762  82.4477 124.7992 0021523 121.7994 238.5185 12.42893120544660

JSON: /api/v1/satellites/39762 · /tle

For live sub-satellite position, see the globe view (requires WebGL).

§ Visibility from observer

Set your observer location to see the next 7 days of passes ≥ 10°. The values pass through the URL so the page stays shareable.

No JS? Fill the form by hand. The geolocation button needs JavaScript.

§ Radio — SatNOGS DB

ModeDescriptionDownlinkUplink
FM UHF Unknown 388.187 MHz
FM UHF Unknown 388.687 MHz

2 transmitters · refreshed weekly from db.satnogs.org